sat.trackr.live / text

‹ back to catalog

SWIFT

NORAD 28485 · 2004-047A

PAYLOAD ACTIVE UNKNOWN

§ Identity

Operator
Country
US
Launch date
2004-11-20
Launch site
AFETR
Launch vehicle
Mass (kg)
RCS (m²)
7.69

Purposes: science

External: N2YO · Heavens-Above · Gunter

§ Orbital elements

Epoch: 2026-05-24T22:52:59.445120Z

Period
91.96 min
Inclination
20.5544°
Eccentricity
0.0003242
Mean motion
15.65860646 rev/d
Perigee alt
368.6 km
Apogee alt
373.0 km
Semi-major
6,748.9 km
B*
4.3751e-4
RAAN
3.7991°
Arg perigee
356.7895°
Mean anomaly
3.2530°
Rev number
18,321

§ Raw data

SWIFT1 28485U 04047A   26144.95346580  .00047623  00000+0  43751-3 0  99932 28485  20.5544   3.7991 0003242 356.7895   3.2530 15.65860646183217

JSON: /api/v1/satellites/28485 · /tle

For live sub-satellite position, see the globe view (requires WebGL).

§ Visibility from observer

Set your observer location to see the next 7 days of passes ≥ 10°. The values pass through the URL so the page stays shareable.

No JS? Fill the form by hand. The geolocation button needs JavaScript.